ONEWEB-0067, 45425

Orbit data source: Space-Track

ONEWEB-0067, 45425 is a payload satellite owned by One Web (UK) in LEO that was launched on Sat, 21 Mar 2020 UTC via a SOYUZ-2-1B launch vehicle from the Tyuratam Missile And Space Complex (TTMTR). Payload-class satellites include a variety of spacecraft equipped with specific instruments for various scientific and technological missions. These include communications satellites like Starlink; space stations such as the ISS; scientific satellites like the Hubble; Earth observation satellites from companies like Planet Labs, Umbra, and HawkEye 360; GPS; miniature CubeSats for education and research; and military/defense satellites.

Loading next visibility...
Identifier
45425, 2020-020B
Orbit
LEO
Last TLE update
3 hours ago
Origin
Manufacturer
One Web
Mission
Operational Commercial Communications
Bus & Motor
ARROW, Unknown motor
Mass
148 kg wet, ~140 kg dry
Launch date (UTC)
2020-03-21 (5 years ago)
Launch vehicle
SOYUZ-2-1B
Launch site
Tyuratam Missile And Space Complex (TTMTR)
Object type
Payload
Rocket body
Debris
Shape & HBR
Trap Box + 2 Pan, 5 m
Radar Cross Section
2.957 m², Large (>1 m²)

Expand to show TLE details & history

TLE from 3 hours ago
0 ONEWEB-0067
1 45425U 20020B   25182.21898462 -.00000011  00000-0 -67136-4 0  9993
2 45425  87.8822  90.9325 0001815  83.9561 276.1773 13.11415239256749
Epoch: 2025-07-01T05:15Z
TLE epoch observation values (Epoch: 2025-07-01T05:15:20.271Z)
Latitude
-0.00008°
Longitude
92.58045°
Altitude
1,220.43 km
Speed
7.244 km/s
True Right ascension
06h 03m 43s
True Declination
0° 00' 00"
Sunlit
Object was in daylight at epoch
Visualization orbit readout
Latitude
-52.86604°
Longitude
89.76719°
Altitude
1,239.252 km
Speed
7.234 km/s
Apparent Right ascension
07h 07m 05s
Apparent Declination
-48° 14' 17"
Sunlit
Object is in daylight
Visualization observer readout
Local Sidereal Time
20:17:06
Azimuth
129.395° SE
Elevation
-74.975°
Doppler factor
1
Orbital elements
Apogee altitude
1,216.186 km
Perigee altitude
1,213.429 km
Semi-major axis
7,592.945 km
Eccentricity
0.00018
Inclination
87.8822°
RAAN
90.9325°
Arg. of periapsis
83.9561°
True anomaly
Unknown
Mean anomaly
276.1773°
Eccentric anomaly
Unknown
Mean motion
3.28041 °/min
Orbital period
109.74 mins
BSTAR
-0.000067136
Loading maneuver chart data...
Loading SW <> Apogee altitude chart data...
Loading historical data...
Loading historical data...
Loading historical data...
Loading historical data...
Loading historical data...
Loading historical data...
Loading historical data...

ONEWEB-0067 Visibility forecast

Observer location: undefined°, undefined°

Span
Click to sort rows by Start time (UTC) header in descending order
Start Az.
Max El. time (UTC)
Max El. Az.
Max El.
End time (UTC)
End Az.
12 mins2025-07-01 18:10:57.391Z168.348° S2025-07-01 18:16:57.391Z63.209° ENE43.571°2025-07-01 18:22:57.391Z5.348° NNE
8 mins2025-07-01 20:03:57.391Z254.65° W2025-07-01 20:06:57.391Z283.213° WNW18.341°2025-07-01 20:11:57.391Z327.755° NNW
12 mins2025-07-02 05:40:57.391Z11.816° NNE2025-07-02 05:45:57.391Z75.453° E40.507°2025-07-02 05:52:57.391Z163.933° S
9 mins2025-07-02 07:31:57.391Z321.61° NNW2025-07-02 07:35:57.391Z279.306° WNW22.518°2025-07-02 07:40:57.391Z234.689° WSW
|